When you browse on this site, cookies collect data to enhance your experience and personalize the content and advertising you see.
Visit our Privacy Policy to learn more. By continuing to use the site, you agree to this use of cookies and data.
  • In Denmark
  • List of Countries
  • For 7 days
  • Water Temperature
  • Satellite Maps
  • Weather Map
  • Weather Widgets
  • user-avatar
    Login

    Hourly Weather Kapan

    Today, 25 April, Thursday

    Time Temperature Precipitation Wind Pressure Humidity
    00:00 +6°C° 0 mm 1 mps 688 mmHg 63%
    01:00 +6°C° 0.1 mm 1 mps 688 mmHg 64%
    02:00 +6°C° 0.1 mm 1 mps 688 mmHg 65%
    03:00 +7°C° 0 mm 1 mps 688 mmHg 65%
    04:00 +7°C° 0.3 mm 1 mps 688 mmHg 66%
    05:00 +7°C° 0.3 mm 1 mps 689 mmHg 68%
    06:00 +7°C° 0.3 mm 1 mps 689 mmHg 69%
    07:00 +8°C° 0.2 mm 1 mps 689 mmHg 64%
    08:00 +9°C° 0.2 mm 1 mps 690 mmHg 59%
    09:00 +11°C° 0 mm 1 mps 690 mmHg 54%
    10:00 +12°C° 0.1 mm 2 mps 689 mmHg 52%
    11:00 +12°C° 0.1 mm 2 mps 689 mmHg 50%
    12:00 +13°C° 0.1 mm 2 mps 689 mmHg 49%
    13:00 +13°C° 0.1 mm 2 mps 689 mmHg 48%
    14:00 +13°C° 0.1 mm 2 mps 689 mmHg 48%
    15:00 +13°C° 0.1 mm 3 mps 689 mmHg 48%
    16:00 +13°C° 0.1 mm 2 mps 688 mmHg 53%
    17:00 +12°C° 0.1 mm 2 mps 688 mmHg 58%
    18:00 +10°C° 0.1 mm 2 mps 688 mmHg 63%
    19:00 +9°C° 0 mm 1 mps 688 mmHg 68%
    20:00 +8°C° 0 mm 1 mps 689 mmHg 73%
    21:00 +7°C° 0 mm 1 mps 689 mmHg 79%
    22:00 +7°C° 0 mm 1 mps 689 mmHg 79%
    23:00 +6°C° 0 mm 1 mps 689 mmHg 79%

    Tomorrow, 26 April, Friday

    Time Temperature Precipitation Wind Pressure Humidity
    00:00 +6°C° 0 mm 1 mps 689 mmHg 79%
    01:00 +6°C° 0 mm 1 mps 689 mmHg 77%
    02:00 +5°C° 0 mm 1 mps 689 mmHg 75%
    03:00 +4°C° 0 mm 2 mps 689 mmHg 74%
    04:00 +5°C° 0 mm 1 mps 689 mmHg 71%
    05:00 +6°C° 0 mm 1 mps 689 mmHg 67%
    06:00 +6°C° 0 mm 1 mps 689 mmHg 64%
    07:00 +8°C° 0 mm 1 mps 689 mmHg 59%
    08:00 +10°C° 0 mm 1 mps 689 mmHg 54%
    09:00 +12°C° 0 mm 2 mps 689 mmHg 49%
    10:00 +13°C° 0 mm 2 mps 689 mmHg 47%
    11:00 +14°C° 0 mm 2 mps 689 mmHg 46%
    12:00 +14°C° 0 mm 3 mps 689 mmHg 45%
    13:00 +14°C° 0 mm 3 mps 688 mmHg 45%
    14:00 +14°C° 0 mm 3 mps 688 mmHg 45%
    15:00 +14°C° 0 mm 3 mps 688 mmHg 46%
    16:00 +14°C° 0 mm 2 mps 687 mmHg 50%
    17:00 +13°C° 0 mm 2 mps 687 mmHg 53%
    18:00 +12°C° 0 mm 2 mps 687 mmHg 57%
    19:00 +10°C° 0 mm 1 mps 687 mmHg 61%
    20:00 +9°C° 0 mm 1 mps 687 mmHg 65%
    21:00 +7°C° 0 mm 1 mps 687 mmHg 68%
    22:00 +7°C° 0 mm 1 mps 687 mmHg 68%
    23:00 +7°C° 0 mm 1 mps 687 mmHg 68%

    Day after tomorrow, 27 April, Saturday

    Time Temperature Precipitation Wind Pressure Humidity
    00:00 +6°C° 0 mm 2 mps 687 mmHg 67%
    01:00 +6°C° 0 mm 2 mps 687 mmHg 66%
    02:00 +6°C° 0 mm 2 mps 687 mmHg 65%
    03:00 +6°C° 0 mm 2 mps 687 mmHg 64%
    04:00 +6°C° 0 mm 2 mps 687 mmHg 62%
    05:00 +6°C° 0 mm 2 mps 687 mmHg 60%
    06:00 +8°C° 0 mm 1 mps 687 mmHg 58%
    07:00 +10°C° 0 mm 1 mps 687 mmHg 52%
    08:00 +12°C° 0 mm 1 mps 688 mmHg 46%
    09:00 +14°C° 0 mm 1 mps 688 mmHg 40%
    10:00 +15°C° 0 mm 2 mps 688 mmHg 39%
    11:00 +16°C° 0 mm 2 mps 688 mmHg 39%
    12:00 +17°C° 0 mm 2 mps 688 mmHg 38%
    13:00 +17°C° 0 mm 2 mps 687 mmHg 39%
    14:00 +18°C° 0 mm 3 mps 687 mmHg 39%
    15:00 +18°C° 0 mm 3 mps 686 mmHg 40%
    16:00 +17°C° 0 mm 2 mps 686 mmHg 46%
    17:00 +15°C° 0 mm 2 mps 685 mmHg 53%
    18:00 +14°C° 0 mm 2 mps 685 mmHg 59%
    19:00 +13°C° 0 mm 2 mps 685 mmHg 64%
    20:00 +11°C° 0 mm 1 mps 685 mmHg 68%
    21:00 +10°C° 0 mm 1 mps 685 mmHg 73%
    22:00 +10°C° 0 mm 1 mps 685 mmHg 69%
    23:00 +9°C° 0 mm 2 mps 685 mmHg 65%

    28 April, Sunday

    Time Temperature Precipitation Wind Pressure Humidity
    00:00 +9°C° 0 mm 2 mps 685 mmHg 62%
    01:00 +9°C° 0 mm 2 mps 685 mmHg 58%
    02:00 +9°C° 0 mm 2 mps 684 mmHg 55%
    03:00 +8°C° 0 mm 2 mps 684 mmHg 51%
    04:00 +9°C° 0 mm 2 mps 684 mmHg 50%
    05:00 +9°C° 0 mm 2 mps 684 mmHg 49%
    06:00 +10°C° 0 mm 2 mps 684 mmHg 48%
    07:00 +13°C° 0 mm 2 mps 684 mmHg 43%
    08:00 +15°C° 0 mm 2 mps 685 mmHg 39%
    09:00 +18°C° 0 mm 2 mps 685 mmHg 35%
    10:00 +19°C° 0 mm 2 mps 685 mmHg 33%
    11:00 +20°C° 0 mm 2 mps 685 mmHg 32%
    12:00 +21°C° 0 mm 3 mps 684 mmHg 31%
    13:00 +21°C° 0 mm 2 mps 684 mmHg 31%
    14:00 +21°C° 0 mm 2 mps 683 mmHg 31%
    15:00 +23°C° 0 mm 2 mps 683 mmHg 31%
    16:00 +20°C° 0 mm 2 mps 683 mmHg 37%
    17:00 +19°C° 0 mm 2 mps 683 mmHg 44%
    18:00 +17°C° 0 mm 2 mps 682 mmHg 50%
    19:00 +16°C° 0 mm 2 mps 682 mmHg 52%
    20:00 +14°C° 0 mm 2 mps 683 mmHg 54%
    21:00 +13°C° 0 mm 2 mps 683 mmHg 56%
    22:00 +13°C° 0 mm 2 mps 683 mmHg 54%
    23:00 +13°C° 0 mm 2 mps 683 mmHg 51%

    29 April, Monday

    Time Temperature Precipitation Wind Pressure Humidity
    00:00 +12°C° 0 mm 3 mps 683 mmHg 48%
    01:00 +12°C° 0 mm 3 mps 683 mmHg 50%
    02:00 +11°C° 0 mm 3 mps 683 mmHg 51%
    03:00 +11°C° 0 mm 3 mps 683 mmHg 52%
    04:00 +12°C° 0 mm 3 mps 683 mmHg 53%
    05:00 +12°C° 0 mm 3 mps 683 mmHg 54%
    06:00 +14°C° 0 mm 2 mps 684 mmHg 55%
    07:00 +16°C° 0 mm 2 mps 684 mmHg 51%
    08:00 +18°C° 0 mm 2 mps 684 mmHg 46%
    09:00 +20°C° 0 mm 2 mps 685 mmHg 42%
    10:00 +21°C° 0.1 mm 3 mps 685 mmHg 40%
    11:00 +22°C° 0.1 mm 3 mps 684 mmHg 38%
    12:00 +24°C° 0.1 mm 3 mps 684 mmHg 37%
    13:00 +24°C° 0.2 mm 3 mps 684 mmHg 36%
    14:00 +24°C° 0.2 mm 3 mps 683 mmHg 36%
    15:00 +24°C° 0.2 mm 2 mps 683 mmHg 35%
    16:00 +23°C° 0.2 mm 2 mps 682 mmHg 42%
    17:00 +20°C° 0.2 mm 2 mps 682 mmHg 49%
    18:00 +19°C° 0.2 mm 1 mps 682 mmHg 55%
    19:00 +18°C° 0.2 mm 1 mps 682 mmHg 57%
    20:00 +16°C° 0.2 mm 2 mps 682 mmHg 59%
    21:00 +16°C° 0.2 mm 2 mps 683 mmHg 61%
    22:00 +15°C° 0.2 mm 2 mps 682 mmHg 60%
    23:00 +15°C° 0.2 mm 2 mps 682 mmHg 58%

    30 April, Tuesday

    Time Temperature Precipitation Wind Pressure Humidity
    00:00 +15°C° 0.2 mm 2 mps 682 mmHg 57%
    01:00 +15°C° 0.1 mm 2 mps 682 mmHg 57%
    02:00 +14°C° 0.1 mm 2 mps 682 mmHg 57%
    03:00 +14°C° 0.1 mm 2 mps 682 mmHg 58%
    04:00 +14°C° 0 mm 2 mps 682 mmHg 57%
    05:00 +14°C° 0 mm 2 mps 682 mmHg 57%
    06:00 +15°C° 0 mm 2 mps 683 mmHg 57%
    07:00 +17°C° 0 mm 2 mps 683 mmHg 52%
    08:00 +19°C° 0 mm 2 mps 684 mmHg 46%
    09:00 +21°C° 0 mm 3 mps 684 mmHg 40%
    10:00 +21°C° 0.1 mm 3 mps 684 mmHg 39%
    11:00 +22°C° 0.1 mm 3 mps 684 mmHg 38%
    12:00 +24°C° 0.1 mm 3 mps 683 mmHg 36%
    13:00 +24°C° 0.2 mm 3 mps 683 mmHg 36%
    14:00 +24°C° 0.2 mm 3 mps 683 mmHg 37%
    15:00 +24°C° 0.2 mm 3 mps 683 mmHg 37%
    16:00 +22°C° 0.4 mm 3 mps 682 mmHg 45%
    17:00 +20°C° 0.4 mm 2 mps 682 mmHg 54%
    18:00 +19°C° 0.4 mm 2 mps 682 mmHg 63%
    19:00 +17°C° 0.3 mm 2 mps 682 mmHg 66%
    20:00 +16°C° 0.3 mm 1 mps 682 mmHg 70%
    21:00 +15°C° 0.3 mm 1 mps 682 mmHg 73%
    22:00 +15°C° 0.2 mm 2 mps 682 mmHg 70%
    23:00 +15°C° 0.2 mm 2 mps 682 mmHg 67%
    Show more